sat.trackr.live / text

‹ back to catalog

STARLINK-11663 [DTC]

NORAD 63668 · 2025-085E

PAYLOAD ACTIVE UNKNOWN

§ Identity

Operator
Country
US
Launch date
2025-04-28
Launch site
AFETR
Launch vehicle
Mass (kg)
RCS (m²)

Purposes: comms

External: N2YO · Heavens-Above · Gunter

§ Orbital elements

Epoch: 2026-09-20T03:52:01.451424Z

Period
91.67 min
Inclination
43.0014°
Eccentricity
0.0003127
Mean motion
15.70927494 rev/d
Perigee alt
354.1 km
Apogee alt
358.4 km
Semi-major
6,734.4 km
B*
1.4628e-3
RAAN
186.5212°
Arg perigee
269.7946°
Mean anomaly
90.2564°
Rev number
8,083

§ Raw data

STARLINK-11663 [DTC]1 63668U 25085E   26263.16112791  .00192383  00000+0  14628-2 0  99942 63668  43.0014 186.5212 0003127 269.7946  90.2564 15.70927494 80837

JSON: /api/v1/satellites/63668 · /tle

For live sub-satellite position, see the globe view (requires WebGL).

§ Visibility from observer

Set your observer location to see the next 7 days of passes ≥ 10°. The values pass through the URL so the page stays shareable.

No JS? Fill the form by hand. The geolocation button needs JavaScript.